TimeCST,TemperatureF,Dew PointF,Humidity,Sea Level PressureIn,VisibilityMPH,Wind Direction,Wind SpeedMPH,Gust SpeedMPH,PrecipitationIn,Events,Conditions,WindDirDegrees,DateUTC
12:54 AM,24.1,15.1,69,30.16,10.0,West,8.1,-,N/A,,Clear,260,2012-11-12 06:54:00
1:54 AM,21.9,15.1,75,30.17,10.0,WSW,8.1,-,N/A,,Clear,240,2012-11-12 07:54:00
2:54 AM,23.0,15.1,72,30.19,10.0,West,9.2,-,N/A,,Clear,270,2012-11-12 08:54:00
3:54 AM,21.9,15.1,75,30.18,10.0,WSW,6.9,-,N/A,,Clear,240,2012-11-12 09:54:00
4:54 AM,21.0,15.1,78,30.20,10.0,SW,6.9,-,N/A,,Clear,230,2012-11-12 10:54:00
5:54 AM,21.9,15.1,75,30.19,10.0,WSW,10.4,-,N/A,,Clear,250,2012-11-12 11:54:00
6:54 AM,21.9,15.1,75,30.20,10.0,WSW,9.2,-,N/A,,Partly Cloudy,250,2012-11-12 12:54:00
7:54 AM,24.1,15.1,69,30.22,10.0,WSW,13.8,-,N/A,,Partly Cloudy,250,2012-11-12 13:54:00
8:54 AM,28.0,16.0,61,30.23,10.0,West,16.1,-,N/A,,Partly Cloudy,260,2012-11-12 14:54:00
9:54 AM,30.9,16.0,54,30.24,10.0,West,15.0,-,N/A,,Scattered Clouds,280,2012-11-12 15:54:00
10:54 AM,33.1,17.1,52,30.25,10.0,WNW,21.9,26.5,N/A,,Scattered Clouds,290,2012-11-12 16:54:00
11:54 AM,36.0,19.0,50,30.24,10.0,West,20.7,-,N/A,,Partly Cloudy,260,2012-11-12 17:54:00
12:54 PM,36.0,18.0,48,30.24,10.0,WNW,17.3,25.3,N/A,,Partly Cloudy,290,2012-11-12 18:54:00
1:54 PM,37.9,18.0,45,30.25,10.0,West,19.6,27.6,N/A,,Partly Cloudy,270,2012-11-12 19:54:00
2:54 PM,37.9,18.0,45,30.26,10.0,WNW,19.6,27.6,N/A,,Partly Cloudy,290,2012-11-12 20:54:00
3:54 PM,37.0,16.0,42,30.28,10.0,West,20.7,25.3,N/A,,Partly Cloudy,280,2012-11-12 21:54:00
4:54 PM,36.0,16.0,44,30.31,10.0,West,15.0,-,N/A,,Clear,280,2012-11-12 22:54:00
5:54 PM,34.0,16.0,48,30.34,10.0,West,10.4,-,N/A,,Clear,280,2012-11-12 23:54:00
6:54 PM,32.0,16.0,52,30.36,10.0,West,6.9,-,N/A,,Clear,270,2012-11-13 00:54:00
7:54 PM,30.0,17.1,59,30.38,10.0,WSW,4.6,-,N/A,,Clear,250,2012-11-13 01:54:00
8:54 PM,28.9,18.0,64,30.40,10.0,SW,5.8,-,N/A,,Clear,220,2012-11-13 02:54:00
9:54 PM,28.0,18.0,66,30.41,10.0,Calm,Calm,-,N/A,,Clear,0,2012-11-13 03:54:00
10:54 PM,27.0,18.0,69,30.41,10.0,West,3.5,-,N/A,,Clear,260,2012-11-13 04:54:00
11:54 PM,25.0,17.1,72,30.43,10.0,South,4.6,-,N/A,,Clear,180,2012-11-13 05:54:00